| time (UTC) | temp F | wind direction | speed MPH | gust MPH | rain 1hr in | rain 24hr in | rain mn in | humidity % | barometer mb |
| 20260508100049 | 67 | 65 | 7.0 | 10.0 | 0.00 | 0.00 | 0.00 | 65 | |
| 20260508095546 | 68 | 5 | 7.0 | 10.0 | 0.00 | 0.00 | 0.00 | 65 | |
| 20260508095043 | 68 | 33 | 5.0 | 13.0 | 0.00 | 0.00 | 0.00 | 64 | |
| 20260508094540 | 69 | 75 | 5.0 | 10.0 | 0.00 | 0.00 | 0.00 | 63 | |
| 20260508094037 | 70 | 355 | 4.0 | 14.0 | 0.00 | 0.00 | 0.00 | 61 | |
| 20260508093534 | 72 | 33 | 3.0 | 7.0 | 0.00 | 0.00 | 0.00 | 52 | |
| 20260508093032 | 73 | 9 | 6.0 | 7.0 | 0.00 | 0.00 | 0.00 | 50 | |
| 20260508092529 | 73 | 344 | 8.0 | 13.0 | 0.00 | 0.00 | 0.00 | 48 | |
| 20260508092028 | 73 | 351 | 10.0 | 18.0 | 0.00 | 0.00 | 0.00 | 48 | |
| 20260508091524 | 74 | 359 | 10.0 | 13.0 | 0.00 | 0.00 | 0.00 | 47 | |
| 20260508091021 | 74 | 1 | 10.0 | 17.0 | 0.00 | 0.00 | 0.00 | 47 | |
| 20260508090520 | 74 | 3 | 11.0 | 15.0 | 0.00 | 0.00 | 0.00 | 46 | |
| 20260508090016 | 75 | 5 | 12.0 | 16.0 | 0.00 | 0.00 | 0.00 | 46 | |
| 20260508085512 | 75 | 2 | 14.0 | 21.0 | 0.00 | 0.00 | 0.00 | 45 | |
| 20260508085009 | 76 | 342 | 13.0 | 16.0 | 0.00 | 0.00 | 0.00 | 45 | |
| 20260508084506 | 76 | 1 | 16.0 | 23.0 | 0.00 | 0.00 | 0.00 | 44 | |
| 20260508084004 | 76 | 20 | 14.0 | 24.0 | 0.00 | 0.00 | 0.00 | 44 | |
| 20260508083500 | 76 | 7 | 15.0 | 23.0 | 0.00 | 0.00 | 0.00 | 44 | |
| 20260508082956 | 76 | 356 | 15.0 | 22.0 | 0.00 | 0.00 | 0.00 | 43 | |
| 20260508082453 | 76 | 3 | 12.0 | 17.0 | 0.00 | 0.00 | 0.00 | 43 | |
| 20260508081951 | 76 | 340 | 11.0 | 21.0 | 0.00 | 0.00 | 0.00 | 41 | |
| 20260508081448 | 76 | 327 | 11.0 | 17.0 | 0.00 | 0.00 | 0.00 | 43 | |
| 20260508080943 | 76 | 48 | 7.0 | 10.0 | 0.00 | 0.00 | 0.00 | 44 | |
| 20260508080442 | 76 | 25 | 11.0 | 13.0 | 0.00 | 0.00 | 0.00 | 43 | |
| 20260508075938 | 75 | 344 | 11.0 | 14.0 | 0.00 | 0.00 | 0.00 | 43 | |
| 20260508075436 | 76 | 13 | 9.0 | 10.0 | 0.00 | 0.00 | 0.00 | 44 | |
| 20260508074933 | 76 | 353 | 11.0 | 15.0 | 0.00 | 0.00 | 0.00 | 43 | |
| 20260508074430 | 76 | 329 | 13.0 | 19.0 | 0.00 | 0.00 | 0.00 | 43 | |
| 20260508073927 | 76 | 1 | 8.0 | 14.0 | 0.00 | 0.00 | 0.00 | 45 | |
| 20260508073425 | 76 | 6 | 11.0 | 15.0 | 0.00 | 0.00 | 0.00 | 45 | |
| 20260508072922 | 76 | 10 | 9.0 | 11.0 | 0.00 | 0.00 | 0.00 | 47 | |
| 20260508072418 | 76 | 357 | 9.0 | 11.0 | 0.00 | 0.00 | 0.00 | 47 | |
| 20260508071915 | 76 | 350 | 7.0 | 13.0 | 0.00 | 0.00 | 0.00 | 47 | |
| 20260508071413 | 76 | 350 | 4.0 | 7.0 | 0.00 | 0.00 | 0.00 | 52 | |
| 20260508070911 | 76 | 306 | 1.0 | 7.0 | 0.00 | 0.00 | 0.00 | 54 | |
| 20260508070408 | 76 | 339 | 6.0 | 14.0 | 0.00 | 0.00 | 0.00 | 53 | |
| 20260508065906 | 76 | 3 | 4.0 | 7.0 | 0.00 | 0.00 | 0.00 | 58 | |
| 20260508065404 | 76 | 106 | 1.0 | 2.0 | 0.00 | 0.00 | 0.00 | 59 | |
| 20260508064902 | 75 | 15 | 2.0 | 6.0 | 0.00 | 0.00 | 0.00 | 58 | |
| 20260508064359 | 75 | 324 | 6.0 | 9.0 | 0.00 | 0.00 | 0.00 | 57 | |
| 20260508063857 | 75 | 63 | 2.0 | 3.0 | 0.00 | 0.00 | 0.00 | 64 | |
| 20260508063354 | 75 | 118 | 0.0 | 0.0 | 0.00 | 0.00 | 0.00 | 68 | |
| 20260508062851 | 75 | 106 | 0.0 | 0.0 | 0.00 | 0.00 | 0.00 | 69 | |
| 20260508062349 | 75 | 100 | 1.0 | 2.0 | 0.00 | 0.00 | 0.00 | 68 | |
| 20260508061846 | 75 | 113 | 0.0 | 2.0 | 0.00 | 0.00 | 0.00 | 68 | |
| 20260508061343 | 75 | 105 | 1.0 | 2.0 | 0.00 | 0.00 | 0.00 | 68 | |
| 20260508060839 | 74 | 131 | 0.0 | 1.0 | 0.00 | 0.00 | 0.00 | 70 | |
| 20260508060337 | 75 | 51 | 2.0 | 7.0 | 0.00 | 0.00 | 0.00 | 69 | |
| 20260508055832 | 75 | 89 | 1.0 | 1.0 | 0.00 | 0.00 | 0.00 | 69 | |
| 20260508055330 | 75 | 150 | 1.0 | 2.0 | 0.00 | 0.00 | 0.00 | 69 | |
| 20260508054826 | 75 | 110 | 1.0 | 3.0 | 0.00 | 0.00 | 0.00 | 68 | |
| 20260508054324 | 74 | 105 | 0.0 | 1.0 | 0.00 | 0.00 | 0.00 | 70 | |
| 20260508053820 | 74 | 104 | 0.0 | 1.0 | 0.00 | 0.00 | 0.00 | 72 | |
| 20260508053318 | 74 | 114 | 0.0 | 0.0 | 0.00 | 0.00 | 0.00 | 72 | |
| 20260508052815 | 74 | 120 | 0.0 | 2.0 | 0.00 | 0.00 | 0.00 | 72 | |
| 20260508052312 | 74 | 137 | 1.0 | 2.0 | 0.00 | 0.00 | 0.00 | 71 | |
| 20260508051808 | 74 | 136 | 2.0 | 2.0 | 0.00 | 0.00 | 0.00 | 71 | |
| 20260508051303 | 73 | 136 | 0.0 | 1.0 | 0.00 | 0.00 | 0.00 | 71 | |
| 20260508050800 | 73 | 136 | 2.0 | 3.0 | 0.00 | 0.00 | 0.00 | 72 | |
| 20260508050258 | 73 | 159 | 1.0 | 2.0 | 0.00 | 0.00 | 0.00 | 72 | |
| 20260508045753 | 73 | 123 | 0.0 | 1.0 | 0.00 | 0.00 | 0.00 | 73 | |
| 20260508045251 | 73 | 126 | 0.0 | 2.0 | 0.00 | 0.00 | 0.00 | 72 | |
| 20260508044749 | 73 | 113 | 0.0 | 3.0 | 0.00 | 0.00 | 0.00 | 72 | |
| 20260508044245 | 73 | 142 | 2.0 | 2.0 | 0.00 | 0.00 | 0.00 | 72 | |
| 20260508043741 | 73 | 124 | 2.0 | 4.0 | 0.00 | 0.00 | 0.00 | 73 | |
| 20260508043239 | 73 | 138 | 4.0 | 4.0 | 0.00 | 0.00 | 0.00 | 72 | |
| 20260508042735 | 73 | 161 | 3.0 | 4.0 | 0.00 | 0.00 | 0.00 | 73 | |
| 20260508042233 | 73 | 144 | 2.0 | 3.0 | 0.00 | 0.00 | 0.00 | 72 | |
| 20260508041729 | 74 | 135 | 3.0 | 6.0 | 0.00 | 0.00 | 0.00 | 71 | |
| 20260508041226 | 74 | 153 | 2.0 | 3.0 | 0.00 | 0.00 | 0.00 | 72 | |
| 20260508040722 | 74 | 133 | 2.0 | 4.0 | 0.00 | 0.00 | 0.00 | 72 | |
| 20260508040220 | 74 | 127 | 2.0 | 4.0 | 0.00 | 0.00 | 0.00 | 72 | |
| 20260508035717 | 74 | 179 | 4.0 | 4.0 | 0.00 | 0.00 | 0.00 | 72 | |
| 20260508035214 | 75 | 127 | 3.0 | 4.0 | 0.00 | 0.00 | 0.00 | 71 | |
| 20260508034711 | 75 | 106 | 2.0 | 2.0 | 0.00 | 0.00 | 0.00 | 71 | |
| 20260508034208 | 74 | 123 | 0.0 | 2.0 | 0.00 | 0.00 | 0.00 | 72 | |
| 20260508033705 | 74 | 170 | 4.0 | 6.0 | 0.00 | 0.00 | 0.00 | 72 | |
| 20260508033204 | 74 | 183 | 2.0 | 4.0 | 0.00 | 0.00 | 0.00 | 73 | |
| 20260508032700 | 74 | 107 | 2.0 | 6.0 | 0.00 | 0.00 | 0.00 | 73 | |
| 20260508032157 | 74 | 102 | 1.0 | 3.0 | 0.00 | 0.00 | 0.00 | 74 | |
| 20260508031654 | 75 | 133 | 3.0 | 4.0 | 0.00 | 0.00 | 0.00 | 72 | |
| 20260508031150 | 75 | 143 | 2.0 | 4.0 | 0.00 | 0.00 | 0.00 | 73 | |
| 20260508030647 | 74 | 152 | 2.0 | 3.0 | 0.00 | 0.00 | 0.00 | 75 | |
| 20260508030145 | 74 | 113 | 1.0 | 6.0 | 0.00 | 0.00 | 0.00 | 74 | |
| 20260508025641 | 74 | 84 | 2.0 | 6.0 | 0.00 | 0.00 | 0.00 | 73 | |
| 20260508025138 | 74 | 46 | 1.0 | 3.0 | 0.00 | 0.00 | 0.00 | 74 | |
| 20260508024633 | 74 | 163 | 2.0 | 4.0 | 0.00 | 0.00 | 0.00 | 74 | |
| 20260508024131 | 74 | 73 | 3.0 | 3.0 | 0.00 | 0.00 | 0.00 | 75 | |
| 20260508023627 | 73 | 181 | 4.0 | 7.0 | 0.00 | 0.00 | 0.00 | 75 | |
| 20260508023125 | 73 | 142 | 4.0 | 6.0 | 0.00 | 0.00 | 0.00 | 75 | |
| 20260508022620 | 73 | 113 | 6.0 | 7.0 | 0.00 | 0.00 | 0.00 | 75 | |
| 20260508022118 | 73 | 153 | 6.0 | 9.0 | 0.00 | 0.00 | 0.00 | 75 | |
| 20260508021614 | 73 | 112 | 4.0 | 8.0 | 0.00 | 0.00 | 0.00 | 74 | |
| 20260508021110 | 74 | 87 | 4.0 | 4.0 | 0.00 | 0.00 | 0.00 | 73 | |
| 20260508020608 | 75 | 109 | 1.0 | 2.0 | 0.00 | 0.00 | 0.00 | 71 | |
| 20260508020105 | 74 | 107 | 0.0 | 2.0 | 0.00 | 0.00 | 0.00 | 73 | |
| 20260508015602 | 74 | 131 | 2.0 | 4.0 | 0.00 | 0.00 | 0.00 | 74 | |
| 20260508015059 | 73 | 145 | 1.0 | 2.0 | 0.00 | 0.00 | 0.00 | 74 | |
| 20260508014555 | 73 | 146 | 1.0 | 2.0 | 0.00 | 0.00 | 0.00 | 74 | |
| 20260508014052 | 74 | 153 | 1.0 | 3.0 | 0.00 | 0.00 | 0.00 | 73 | |
| 20260508013548 | 74 | 115 | 1.0 | 1.0 | 0.00 | 0.00 | 0.00 | 74 | |
| 20260508013045 | 74 | 113 | 0.0 | 1.0 | 0.00 | 0.00 | 0.00 | 74 | |
| 20260508012542 | 73 | 72 | 1.0 | 2.0 | 0.00 | 0.00 | 0.00 | 75 | |
| 20260508012040 | 73 | 170 | 2.0 | 2.0 | 0.00 | 0.00 | 0.00 | 75 | |
| 20260508011538 | 73 | 125 | 0.0 | 2.0 | 0.00 | 0.00 | 0.00 | 76 | |
| 20260508011035 | 72 | 134 | 2.0 | 3.0 | 0.00 | 0.00 | 0.00 | 75 | |
| 20260508010531 | 73 | 158 | 1.0 | 4.0 | 0.00 | 0.00 | 0.00 | 75 | |
| 20260508010029 | 72 | 207 | 2.0 | 3.0 | 0.00 | 0.00 | 0.00 | 76 | |
| 20260508005525 | 72 | 136 | 1.0 | 2.0 | 0.00 | 0.00 | 0.00 | 77 | |
| 20260508005022 | 71 | 136 | 1.0 | 2.0 | 0.00 | 0.00 | 0.00 | 79 | |
| 20260508004518 | 72 | 215 | 3.0 | 3.0 | 0.00 | 0.00 | 0.00 | 77 | |
| 20260508004015 | 71 | 129 | 1.0 | 2.0 | 0.00 | 0.00 | 0.00 | 79 | |
| 20260508003512 | 71 | 111 | 1.0 | 2.0 | 0.00 | 0.00 | 0.00 | 79 | |
| 20260508003009 | 71 | 95 | 2.0 | 2.0 | 0.00 | 0.00 | 0.00 | 79 | |
| 20260508002505 | 71 | 129 | 1.0 | 1.0 | 0.00 | 0.00 | 0.00 | 79 | |
| 20260508002002 | 70 | 136 | 0.0 | 1.0 | 0.00 | 0.00 | 0.00 | 81 | |
| 20260508001458 | 70 | 141 | 2.0 | 3.0 | 0.00 | 0.00 | 0.00 | 81 | |
| 20260508000955 | 69 | 73 | 1.0 | 2.0 | 0.00 | 0.00 | 0.00 | 82 | |
| 20260508000450 | 69 | 125 | 0.0 | 2.0 | 0.00 | 0.00 | 0.00 | 82 | |
| 20260507235948 | 69 | 70 | 1.0 | 2.0 | 0.00 | 0.00 | 0.00 | 83 | |
| 20260507235444 | 68 | 123 | 0.0 | 1.0 | 0.00 | 0.00 | 0.00 | 85 | |
| 20260507234942 | 68 | 47 | 3.0 | 3.0 | 0.00 | 0.00 | 0.00 | 85 | |
| 20260507234438 | 68 | 96 | 1.0 | 3.0 | 0.00 | 0.00 | 0.00 | 84 | |
| 20260507233935 | 69 | 31 | 2.0 | 2.0 | 0.00 | 0.00 | 0.00 | 84 | |
| 20260507233432 | 68 | 84 | 1.0 | 3.0 | 0.00 | 0.00 | 0.00 | 84 | |
| 20260507232930 | 68 | 123 | 0.0 | 1.0 | 0.00 | 0.00 | 0.00 | 86 | |
| 20260507232426 | 67 | 9 | 3.0 | 4.0 | 0.00 | 0.00 | 0.00 | 87 | |
| 20260507231924 | 67 | 83 | 1.0 | 3.0 | 0.00 | 0.00 | 0.00 | 86 | |
| 20260507231420 | 67 | 112 | 0.0 | 1.0 | 0.00 | 0.00 | 0.00 | 86 | |
| 20260507230917 | 67 | 105 | 0.0 | 1.0 | 0.00 | 0.00 | 0.00 | 86 | |
| 20260507230415 | 67 | 77 | 2.0 | 3.0 | 0.00 | 0.00 | 0.00 | 86 | |
| 20260507225914 | 68 | 123 | 0.0 | 1.0 | 0.00 | 0.00 | 0.00 | 85 | |
| 20260507225411 | 68 | 106 | 0.0 | 1.0 | 0.00 | 0.00 | 0.00 | 85 | |
| 20260507224907 | 68 | 124 | 0.0 | 1.0 | 0.00 | 0.00 | 0.00 | 86 | |
| 20260507224403 | 67 | 116 | 0.0 | 0.0 | 0.00 | 0.00 | 0.00 | 87 | |
| 20260507223900 | 67 | 86 | 1.0 | 2.0 | 0.00 | 0.00 | 0.00 | 87 | |
| 20260507223356 | 67 | 108 | 0.0 | 1.0 | 0.00 | 0.00 | 0.00 | 88 | |
| 20260507222853 | 67 | 112 | 0.0 | 1.0 | 0.00 | 0.00 | 0.00 | 88 | |
| 20260507222349 | 67 | 115 | 0.0 | 1.0 | 0.00 | 0.00 | 0.00 | 88 | |
| 20260507221846 | 67 | 252 | 0.0 | 1.0 | 0.00 | 0.00 | 0.00 | 88 | |
| 20260507221343 | 67 | 105 | 1.0 | 3.0 | 0.00 | 0.00 | 0.00 | 87 | |
| 20260507220839 | 67 | 49 | 1.0 | 1.0 | 0.00 | 0.00 | 0.00 | 87 | |
| 20260507220337 | 67 | 105 | 0.0 | 1.0 | 0.00 | 0.00 | 0.00 | 87 | |
| 20260507215833 | 67 | 348 | 2.0 | 3.0 | 0.00 | 0.00 | 0.00 | 87 | |
| 20260507215330 | 67 | 126 | 0.0 | 0.0 | 0.00 | 0.00 | 0.00 | 87 | |
| 20260507214827 | 67 | 138 | 0.0 | 1.0 | 0.00 | 0.00 | 0.00 | 88 | |
| 20260507214326 | 67 | 144 | 1.0 | 1.0 | 0.00 | 0.00 | 0.00 | 88 | |
| 20260507213826 | 66 | 107 | 0.0 | 1.0 | 0.00 | 0.00 | 0.00 | 88 | |
| 20260507213323 | 66 | 33 | 3.0 | 4.0 | 0.00 | 0.00 | 0.00 | 89 | |
| 20260507212820 | 66 | 138 | 1.0 | 2.0 | 0.00 | 0.00 | 0.00 | 89 | |
| 20260507212316 | 66 | 103 | 0.0 | 1.0 | 0.00 | 0.00 | 0.00 | 90 | |
| 20260507211812 | 65 | 112 | 0.0 | 0.0 | 0.00 | 0.00 | 0.00 | 90 | |
| 20260507211309 | 65 | 77 | 1.0 | 3.0 | 0.00 | 0.00 | 0.00 | 90 | |
| 20260507210806 | 65 | 74 | 1.0 | 2.0 | 0.00 | 0.00 | 0.00 | 91 | |
| 20260507210303 | 65 | 109 | 0.0 | 0.0 | 0.00 | 0.00 | 0.00 | 91 | |
| 20260507205759 | 65 | 108 | 0.0 | 1.0 | 0.00 | 0.00 | 0.00 | 91 | |
| 20260507205256 | 65 | 110 | 0.0 | 0.0 | 0.00 | 0.00 | 0.00 | 91 | |
| 20260507204752 | 64 | 86 | 1.0 | 1.0 | 0.00 | 0.00 | 0.00 | 91 | |
| 20260507204250 | 64 | 98 | 0.0 | 1.0 | 0.00 | 0.00 | 0.00 | 91 | |
| 20260507203748 | 64 | 90 | 1.0 | 2.0 | 0.00 | 0.00 | 0.00 | 91 | |
| 20260507203245 | 64 | 82 | 1.0 | 2.0 | 0.00 | 0.00 | 0.00 | 91 | |
| 20260507202741 | 64 | 51 | 2.0 | 2.0 | 0.00 | 0.00 | 0.00 | 91 | |
| 20260507202237 | 64 | 242 | 4.0 | 6.0 | 0.00 | 0.00 | 0.00 | 91 | |
| 20260507201732 | 64 | 153 | 3.0 | 4.0 | 0.00 | 0.00 | 0.00 | 91 | |
| 20260507201229 | 64 | 251 | 3.0 | 4.0 | 0.00 | 0.00 | 0.00 | 91 | |
| 20260507200726 | 64 | 189 | 3.0 | 3.0 | 0.00 | 0.00 | 0.00 | 91 | |
| 20260507200222 | 64 | 166 | 2.0 | 2.0 | 0.00 | 0.00 | 0.00 | 91 | |
| 20260507195718 | 64 | 124 | 0.0 | 0.0 | 0.00 | 0.00 | 0.00 | 91 | |
| 20260507195215 | 64 | 139 | 0.0 | 1.0 | 0.00 | 0.00 | 0.00 | 91 | |
| 20260507194712 | 64 | 103 | 0.0 | 2.0 | 0.00 | 0.00 | 0.00 | 91 | |
| 20260507194209 | 64 | 102 | 0.0 | 2.0 | 0.00 | 0.00 | 0.00 | 91 | |
| 20260507193705 | 65 | 94 | 0.0 | 3.0 | 0.00 | 0.00 | 0.00 | 91 | |
| 20260507193202 | 65 | 53 | 2.0 | 6.0 | 0.00 | 0.00 | 0.00 | 91 | |
| 20260507192658 | 65 | 358 | 6.0 | 7.0 | 0.00 | 0.00 | 0.00 | 90 | |
| 20260507192155 | 65 | 330 | 5.0 | 6.0 | 0.00 | 0.00 | 0.00 | 90 | |
| 20260507191651 | 65 | 359 | 4.0 | 6.0 | 0.00 | 0.00 | 0.00 | 90 | |
| 20260507191148 | 65 | 33 | 4.0 | 6.0 | 0.00 | 0.00 | 0.00 | 90 | |
| 20260507190645 | 65 | 93 | 1.0 | 3.0 | 0.00 | 0.00 | 0.00 | 91 | |
| 20260507190144 | 65 | 111 | 1.0 | 1.0 | 0.00 | 0.00 | 0.00 | 91 | |
| 20260507185642 | 65 | 99 | 1.0 | 1.0 | 0.00 | 0.00 | 0.00 | 91 | |
| 20260507185138 | 65 | 49 | 1.0 | 2.0 | 0.00 | 0.00 | 0.00 | 91 | |
| 20260507184636 | 65 | 106 | 0.0 | 1.0 | 0.00 | 0.00 | 0.00 | 91 | |
| 20260507184134 | 64 | 114 | 0.0 | 0.0 | 0.00 | 0.00 | 0.00 | 91 | |
| 20260507183630 | 64 | 71 | 0.0 | 1.0 | 0.00 | 0.00 | 0.00 | 91 | |
| 20260507183127 | 64 | 54 | 1.0 | 2.0 | 0.00 | 0.00 | 0.00 | 91 | |
| 20260507182623 | 64 | 62 | 2.0 | 2.0 | 0.00 | 0.00 | 0.00 | 91 | |
| 20260507182119 | 64 | 157 | 1.0 | 2.0 | 0.00 | 0.00 | 0.00 | 91 | |
| 20260507181616 | 64 | 107 | 0.0 | 0.0 | 0.00 | 0.00 | 0.00 | 90 | |
| 20260507181112 | 64 | 109 | 0.0 | 0.0 | 0.00 | 0.00 | 0.00 | 90 | |
| 20260507180609 | 64 | 110 | 0.0 | 0.0 | 0.00 | 0.00 | 0.00 | 90 | |
| 20260507180106 | 64 | 111 | 0.0 | 0.0 | 0.00 | 0.00 | 0.00 | 90 | |
| 20260507175602 | 64 | 109 | 0.0 | 0.0 | 0.00 | 0.00 | 0.00 | 90 | |
| 20260507175059 | 64 | 232 | 0.0 | 1.0 | 0.00 | 0.00 | 0.00 | 90 | |
| 20260507174556 | 64 | 232 | 0.0 | 0.0 | 0.00 | 0.00 | 0.00 | 90 | |
| 20260507174054 | 65 | 233 | 1.0 | 2.0 | 0.00 | 0.00 | 0.00 | 89 | |
| 20260507173551 | 65 | 126 | 0.0 | 0.0 | 0.00 | 0.00 | 0.00 | 89 | |
| 20260507173048 | 65 | 58 | 1.0 | 2.0 | 0.00 | 0.00 | 0.00 | 89 | |
| 20260507172544 | 65 | 116 | 1.0 | 1.0 | 0.00 | 0.00 | 0.00 | 88 | |
| 20260507172041 | 65 | 122 | 0.0 | 0.0 | 0.00 | 0.00 | 0.00 | 88 | |
| 20260507171536 | 65 | 113 | 0.0 | 1.0 | 0.00 | 0.00 | 0.00 | 88 | |
| 20260507171034 | 65 | 107 | 0.0 | 1.0 | 0.00 | 0.00 | 0.00 | 88 | |
| 20260507170530 | 65 | 110 | 0.0 | 1.0 | 0.00 | 0.00 | 0.00 | 88 | |
| 20260507170027 | 65 | 116 | 0.0 | 0.0 | 0.00 | 0.00 | 0.00 | 88 | |
| 20260507165523 | 65 | 97 | 0.0 | 1.0 | 0.00 | 0.00 | 0.00 | 88 | |
| 20260507165020 | 65 | 115 | 0.0 | 1.0 | 0.00 | 0.00 | 0.00 | 88 | |
| 20260507164516 | 65 | 90 | 1.0 | 2.0 | 0.00 | 0.00 | 0.00 | 88 | |
| 20260507164013 | 65 | 39 | 2.0 | 3.0 | 0.00 | 0.00 | 0.00 | 88 | |
| 20260507163510 | 65 | 114 | 0.0 | 2.0 | 0.00 | 0.00 | 0.00 | 88 | |
| 20260507163008 | 65 | 100 | 0.0 | 1.0 | 0.00 | 0.00 | 0.00 | 88 | |
| 20260507162503 | 65 | 74 | 1.0 | 1.0 | 0.00 | 0.00 | 0.00 | 89 | |
| 20260507162000 | 65 | 73 | 1.0 | 3.0 | 0.00 | 0.00 | 0.00 | 89 | |
| 20260507161456 | 65 | 29 | 2.0 | 3.0 | 0.00 | 0.00 | 0.00 | 89 | |
| 20260507160953 | 65 | 61 | 0.0 | 1.0 | 0.00 | 0.00 | 0.00 | 89 | |
| 20260507160449 | 65 | 59 | 1.0 | 2.0 | 0.00 | 0.00 | 0.00 | 89 | |
| 20260507155945 | 65 | 44 | 2.0 | 2.0 | 0.00 | 0.00 | 0.00 | 88 | |
| 20260507155441 | 65 | 118 | 0.0 | 0.0 | 0.00 | 0.00 | 0.00 | 87 | |
| 20260507154938 | 65 | 102 | 0.0 | 0.0 | 0.00 | 0.00 | 0.00 | 87 | |
| 20260507154435 | 65 | 68 | 1.0 | 2.0 | 0.00 | 0.00 | 0.00 | 87 | |
| 20260507153932 | 65 | 90 | 2.0 | 2.0 | 0.00 | 0.00 | 0.00 | 87 | |
| 20260507153429 | 65 | 99 | 1.0 | 2.0 | 0.00 | 0.00 | 0.00 | 87 | |
| 20260507152925 | 65 | 87 | 1.0 | 1.0 | 0.00 | 0.00 | 0.00 | 87 | |
| 20260507152421 | 65 | 121 | 0.0 | 1.0 | 0.00 | 0.00 | 0.00 | 88 | |
| 20260507151917 | 65 | 108 | 0.0 | 0.0 | 0.00 | 0.00 | 0.00 | 87 | |
| 20260507151414 | 65 | 98 | 1.0 | 1.0 | 0.00 | 0.00 | 0.00 | 87 | |
| 20260507150911 | 65 | 98 | 1.0 | 1.0 | 0.00 | 0.00 | 0.00 | 87 | |
| 20260507150408 | 65 | 122 | 0.0 | 1.0 | 0.00 | 0.00 | 0.00 | 86 | |
| 20260507145904 | 66 | 108 | 0.0 | 1.0 | 0.00 | 0.00 | 0.00 | 86 | |
| 20260507145400 | 66 | 117 | 0.0 | 2.0 | 0.00 | 0.00 | 0.00 | 86 | |
| 20260507144857 | 66 | 51 | 2.0 | 2.0 | 0.00 | 0.00 | 0.00 | 86 | |
| 20260507144354 | 66 | 102 | 0.0 | 1.0 | 0.00 | 0.00 | 0.00 | 86 | |
| 20260507143851 | 66 | 111 | 0.0 | 1.0 | 0.00 | 0.00 | 0.00 | 85 | |
| 20260507143348 | 66 | 95 | 0.0 | 1.0 | 0.00 | 0.00 | 0.00 | 85 | |
| 20260507142845 | 66 | 114 | 0.0 | 1.0 | 0.00 | 0.00 | 0.00 | 84 | |
| 20260507142341 | 67 | 115 | 1.0 | 1.0 | 0.00 | 0.00 | 0.00 | 83 | |
| 20260507141838 | 67 | 24 | 1.0 | 3.0 | 0.00 | 0.00 | 0.00 | 83 | |
| 20260507141334 | 67 | 91 | 1.0 | 2.0 | 0.00 | 0.00 | 0.00 | 82 | |
| 20260507140831 | 67 | 112 | 1.0 | 1.0 | 0.00 | 0.00 | 0.00 | 81 | |
| 20260507140328 | 67 | 127 | 0.0 | 1.0 | 0.00 | 0.00 | 0.00 | 81 | |
| 20260507135826 | 67 | 2 | 1.0 | 2.0 | 0.00 | 0.00 | 0.00 | 80 | |
| 20260507135322 | 68 | 133 | 1.0 | 3.0 | 0.00 | 0.00 | 0.00 | 80 | |
| 20260507134820 | 67 | 156 | 1.0 | 3.0 | 0.00 | 0.00 | 0.00 | 80 | |
| 20260507134315 | 68 | 305 | 2.0 | 3.0 | 0.00 | 0.00 | 0.00 | 80 | |
| 20260507133811 | 68 | 120 | 1.0 | 4.0 | 0.00 | 0.00 | 0.00 | 80 | |
| 20260507133307 | 68 | 206 | 2.0 | 4.0 | 0.00 | 0.00 | 0.00 | 80 | |
| 20260507132806 | 68 | 298 | 2.0 | 2.0 | 0.00 | 0.00 | 0.00 | 79 | |
| 20260507132306 | 68 | 133 | 1.0 | 2.0 | 0.00 | 0.00 | 0.00 | 79 | |
| 20260507131759 | 68 | 242 | 3.0 | 7.0 | 0.00 | 0.00 | 0.00 | 79 | |
| 20260507131256 | 68 | 178 | 2.0 | 7.0 | 0.00 | 0.00 | 0.00 | 79 | |
| 20260507130752 | 68 | 163 | 2.0 | 3.0 | 0.00 | 0.00 | 0.00 | 80 | |
| 20260507130250 | 68 | 348 | 3.0 | 4.0 | 0.00 | 0.00 | 0.00 | 80 | |
| 20260507125749 | 68 | 120 | 0.0 | 3.0 | 0.00 | 0.00 | 0.00 | 80 | |
| 20260507125246 | 68 | 187 | 2.0 | 2.0 | 0.00 | 0.00 | 0.00 | 80 | |
| 20260507124743 | 69 | 123 | 0.0 | 0.0 | 0.00 | 0.00 | 0.00 | 80 | |
| 20260507124239 | 69 | 141 | 1.0 | 2.0 | 0.00 | 0.00 | 0.00 | 80 | |
| 20260507123738 | 68 | 205 | 0.0 | 1.0 | 0.00 | 0.00 | 0.00 | 80 | |
| 20260507123235 | 68 | 161 | 1.0 | 1.0 | 0.00 | 0.00 | 0.00 | 81 | |
| 20260507122730 | 68 | 120 | 0.0 | 1.0 | 0.00 | 0.00 | 0.00 | 80 | |
| 20260507122226 | 68 | 100 | 1.0 | 1.0 | 0.00 | 0.00 | 0.00 | 80 | |
| 20260507121722 | 68 | 113 | 0.0 | 1.0 | 0.00 | 0.00 | 0.00 | 80 | |
| 20260507121218 | 68 | 112 | 0.0 | 1.0 | 0.00 | 0.00 | 0.00 | 79 | |
| 20260507120715 | 68 | 115 | 0.0 | 2.0 | 0.00 | 0.00 | 0.00 | 79 | |
| 20260507120212 | 68 | 42 | 2.0 | 3.0 | 0.00 | 0.00 | 0.00 | 79 | |
| 20260507115708 | 68 | 196 | 3.0 | 6.0 | 0.00 | 0.00 | 0.00 | 79 | |
| 20260507115204 | 68 | 100 | 2.0 | 3.0 | 0.00 | 0.00 | 0.00 | 80 | |
| 20260507114659 | 68 | 290 | 2.0 | 4.0 | 0.00 | 0.00 | 0.00 | 80 | |
| 20260507114157 | 68 | 359 | 2.0 | 3.0 | 0.00 | 0.00 | 0.00 | 80 | |
| 20260507113654 | 68 | 292 | 3.0 | 4.0 | 0.00 | 0.00 | 0.00 | 80 | |
| 20260507113151 | 68 | 68 | 2.0 | 3.0 | 0.00 | 0.00 | 0.00 | 79 | |
| 20260507112649 | 68 | 358 | 3.0 | 4.0 | 0.00 | 0.00 | 0.00 | 79 | |
| 20260507112145 | 69 | 234 | 2.0 | 3.0 | 0.00 | 0.00 | 0.00 | 79 | |
| 20260507111643 | 69 | 185 | 1.0 | 2.0 | 0.00 | 0.00 | 0.00 | 79 | |
| 20260507111139 | 69 | 140 | 1.0 | 2.0 | 0.00 | 0.00 | 0.00 | 78 | |
| 20260507110635 | 69 | 138 | 1.0 | 2.0 | 0.00 | 0.00 | 0.00 | 78 | |
| 20260507110132 | 69 | 244 | 3.0 | 4.0 | 0.00 | 0.00 | 0.00 | 77 | |
| 20260507105629 | 69 | 210 | 3.0 | 4.0 | 0.00 | 0.00 | 0.00 | 77 | |
| 20260507105125 | 69 | 206 | 2.0 | 3.0 | 0.00 | 0.00 | 0.00 | 77 | |
| 20260507104623 | 69 | 110 | 1.0 | 1.0 | 0.00 | 0.00 | 0.00 | 77 | |
| 20260507104119 | 69 | 115 | 0.0 | 2.0 | 0.00 | 0.00 | 0.00 | 77 | |
| 20260507103615 | 69 | 114 | 2.0 | 3.0 | 0.00 | 0.00 | 0.00 | 77 | |
| 20260507103112 | 69 | 181 | 1.0 | 2.0 | 0.00 | 0.00 | 0.00 | 77 | |
| 20260507102608 | 69 | 137 | 0.0 | 3.0 | 0.00 | 0.00 | 0.00 | 77 | |
| 20260507102105 | 69 | 108 | 1.0 | 2.0 | 0.00 | 0.00 | 0.00 | 77 | |
| 20260507101601 | 69 | 159 | 1.0 | 4.0 | 0.00 | 0.00 | 0.00 | 77 | |
| 20260507101056 | 69 | 215 | 2.0 | 4.0 | 0.00 | 0.00 | 0.00 | 77 | |
| 20260507100554 | 69 | 188 | 1.0 | 2.0 | 0.00 | 0.00 | 0.00 | 77 |